Location: ActonStarParty
(42.4766°N, 71.4538°W)
Time: 11:16:07
(UTC-04:00)

Cosmos 2184 Rocket - Pass Details

Date: 19 April 2018
Orbit: 959 x 1002 km, 82.9° (Epoch: 19 September)

Event Time Altitude Azimuth Distance (km) Brightness Sun altitude
Rises 19:59:19 0° 184° (S) 3,639 6.8 -5.6°
Reaches altitude 10° 20:01:48 10° 184° (S) 2,692 6.2 -6.0°
Maximum altitude 20:07:58 87° 98° (E) 967 4.0 -7.0°
Drops below altitude 10° 20:14:10 10° 8° (N) 2,702 6.5 -8.1°
Sets 20:16:40 0° 9° (N) 3,653 7.2 -8.5°
